Change the Weather History Date:

Sunday, February 16, 2014

  Actual Average Record
Temperature  
Mean Temperature 36 °F -  
Max Temperature 38 °F 36 °F 55 °F (2007)
Min Temperature 33 °F 29 °F 19 °F (2008)
Degree Days  
Heating Degree Days 30    
Moisture  
Dew Point 35 °F    
Average Humidity 93    
Maximum Humidity 100    
Minimum Humidity 72    
Precipitation  
Precipitation 0.35 in - - ()
Sea Level Pressure  
Sea Level Pressure 29.79 in    
Wind  
Wind Speed 11 mph ()    
Max Wind Speed 16 mph    
Max Gust Speed 25 mph    
Visibility 6.6 miles    
Events Rain    
Averages and records for this station are not official NWS values.
T = Trace of Precipitation, MM = Missing Value Source: Averaged Metar Reports

Daily Weather History Graph

Daily Weather History Graph

Search for Another Location

Airport or City:

Trip Planner

Search our weather history database for the weather conditions in past years. The results will help you decide how hot, cold, wet, or windy it might be!

Date:

Astronomy

Feb. 16, 2014 Rise Set
Actual Time 7:45 AM CET 5:54 PM CET
Civil Twilight 7:11 AM CET 6:27 PM CET
Nautical Twilight 6:33 AM CET 7:06 PM CET
Astronomical Twilight 5:55 AM CET 7:43 PM CET
Moon 7:51 PM CET (2/16) 7:54 AM CET (2/16)
Length of Visible Light 11h 16m
Length of Day
10h 08m
Full, 98% of the Moon is Illuminated
Feb 16
Full
Feb 22
Last Quarter
Mar 1
New
Mar 8
First Quarter
Mar 16
Full

Hourly Weather History & Observations

Time (CET) Temp. Windchill Dew Point Humidity Pressure Visibility Wind Dir Wind Speed Gust Speed Precip Events Conditions
12:00 AM 40 °F - 35 °F 74% 29.69 in 19 mi SW 13.4 mph - -   Scattered Clouds
12:25 AM 41.0 °F 33.1 °F 35.6 °F 81% 29.65 in 6.2 mi SW 15.0 mph - N/A   Mostly Cloudy
1:00 AM 40 °F - 35 °F 75% 29.70 in 17 mi WSW 13.4 mph - -   Clear
1:25 AM 39.2 °F 31.2 °F 35.6 °F 87% 29.65 in 6.2 mi WSW 13.8 mph - N/A   Overcast
2:00 AM 40 °F - 34 °F 72% 29.71 in 19 mi WSW 13.4 mph - -   Clear
2:07 AM 39.2 °F 30.5 °F 33.8 °F 81% 29.65 in 6.2 mi SW 16.1 mph - N/A   Mostly Cloudy
2:08 AM 39.2 °F 30.5 °F 33.8 °F 81% 29.65 in 6.2 mi SW 16.1 mph - N/A   Mostly Cloudy
2:25 AM 39.2 °F 30.8 °F 33.8 °F 81% 29.65 in 6.2 mi SW 15.0 mph - N/A   Mostly Cloudy
2:48 AM 39.2 °F 30.5 °F 33.8 °F 81% 29.65 in 6.2 mi SW 16.1 mph - N/A   Mostly Cloudy
3:00 AM 39 °F - 34 °F 76% 29.72 in 19 mi SW 13.4 mph - -   Scattered Clouds
3:25 AM 39.2 °F 31.2 °F 33.8 °F 81% 29.65 in 6.2 mi SW 13.8 mph 25.3 mph N/A   Mostly Cloudy
3:37 AM 39.2 °F 30.8 °F 33.8 °F 81% 29.65 in 4.3 mi SW 15.0 mph - N/A   Mostly Cloudy
3:39 AM 39.2 °F 31.2 °F 33.8 °F 81% 29.65 in - WSW 13.8 mph - N/A   Mostly Cloudy
3:45 AM 37.4 °F 28.2 °F 33.8 °F 87% 29.68 in - WSW 16.1 mph - N/A   Mostly Cloudy
4:00 AM 37 °F - 35 °F 89% 29.74 in 2 mi WSW 11.2 mph - - Rain Rain
4:23 AM 37.4 °F 29.3 °F 35.6 °F 93% 29.68 in 3.7 mi WSW 12.7 mph - N/A   Mostly Cloudy
4:25 AM 37.4 °F 29.3 °F 35.6 °F 93% 29.68 in 3.1 mi WSW 12.7 mph - N/A   Mostly Cloudy
5:00 AM 36 °F - 36 °F 98% 29.76 in 25 mi WSW 13.4 mph - -   Clear
5:25 AM 37.4 °F 28.9 °F 35.6 °F 93% 29.68 in 5.0 mi WSW 13.8 mph - N/A   Mostly Cloudy
6:00 AM 37 °F - 35 °F 92% 29.77 in 22 mi WSW 13.4 mph - -   Clear
6:25 AM 37.4 °F 29.3 °F 35.6 °F 93% 29.71 in 6.2 mi WSW 12.7 mph - N/A   Overcast
7:00 AM 36 °F - 35 °F 96% 29.78 in 4 mi WSW 13.4 mph - - Rain Light Rain
7:18 AM 37.4 °F 29.8 °F 35.6 °F 93% 29.71 in - WSW 11.5 mph - N/A   Overcast
7:25 AM 35.6 °F 26.6 °F 35.6 °F 100% 29.74 in - WSW 13.8 mph - N/A   Overcast
8:00 AM 36 °F - 36 °F 98% 29.81 in 2 mi WSW 13.4 mph - - Rain Drizzle
8:18 AM 37.4 °F 29.3 °F 35.6 °F 93% 29.74 in 1.7 mi WSW 12.7 mph - N/A   Mostly Cloudy
8:25 AM 35.6 °F 27.1 °F 35.6 °F 100% 29.74 in 6.2 mi WSW 12.7 mph - N/A   Mostly Cloudy
8:33 AM 35.6 °F 26.6 °F 35.6 °F 100% 29.77 in 1.1 mi WSW 13.8 mph - N/A   Mostly Cloudy
8:39 AM 35.6 °F 26.6 °F 33.8 °F 93% 29.77 in 1.6 mi WSW 13.8 mph - N/A   Unknown
8:41 AM 35.6 °F 27.5 °F 33.8 °F 93% 29.77 in 1.5 mi WSW 11.5 mph - N/A   Unknown
8:46 AM 33.8 °F 25.8 °F 33.8 °F 100% 29.77 in 1.4 mi WSW 10.4 mph - N/A   Unknown
8:47 AM 33.8 °F 25.8 °F 33.8 °F 100% 29.77 in 1.3 mi WSW 10.4 mph - N/A   Unknown
9:00 AM 34 °F - 34 °F 100% 29.84 in 2 mi West 8.9 mph - - Rain Rain
9:03 AM 33.8 °F 26.4 °F 33.8 °F 100% 29.77 in 1.6 mi West 9.2 mph - N/A   Mostly Cloudy
9:05 AM 33.8 °F 26.4 °F 33.8 °F 100% 29.77 in - West 9.2 mph - N/A   Overcast
9:25 AM 33.8 °F 26.4 °F 33.8 °F 100% 29.77 in 1.9 mi West 9.2 mph - N/A   Mostly Cloudy
10:00 AM 36 °F - 36 °F 100% 29.86 in 7 mi WSW 11.2 mph - - Rain Light Rain
10:20 AM 35.6 °F 27.5 °F 35.6 °F 100% 29.80 in 6.2 mi West 11.5 mph - N/A   Mostly Cloudy
10:25 AM 37.4 °F 29.8 °F 37.4 °F 100% 29.77 in 6.2 mi WSW 11.5 mph - N/A   Mostly Cloudy
11:00 AM 37 °F - 37 °F 100% 29.86 in 15 mi WSW 13.4 mph - -   Clear
11:25 AM 37.4 °F 28.5 °F 35.6 °F 93% 29.80 in - WSW 15.0 mph - N/A   Mostly Cloudy
11:36 AM 37.4 °F 30.3 °F 35.6 °F 93% 29.80 in - WSW 10.4 mph - N/A   Mostly Cloudy
11:54 AM 37.4 °F 28.9 °F 37.4 °F 100% 29.80 in 6.2 mi WSW 13.8 mph - N/A   Mostly Cloudy
12:00 PM 38 °F - 37 °F 93% 29.88 in 16 mi WSW 13.4 mph - -   Clear
12:09 PM 37.4 °F 29.3 °F 35.6 °F 93% 29.83 in 1.8 mi WSW 12.7 mph - N/A   Mostly Cloudy
12:25 PM 37.4 °F 29.8 °F 37.4 °F 100% 29.83 in 6.2 mi WSW 11.5 mph - N/A   Mostly Cloudy
1:00 PM 38 °F - 36 °F 88% 29.88 in 6 mi WSW 11.2 mph - - Rain Drizzle
1:25 PM 39.2 °F 31.2 °F 37.4 °F 93% 29.83 in 6.2 mi West 13.8 mph - N/A   Mostly Cloudy
2:00 PM 38 °F - 37 °F 94% 29.89 in 14 mi WSW 13.4 mph - -   Clear
2:25 PM 37.4 °F 30.3 °F 35.6 °F 93% 29.83 in 5.0 mi WSW 10.4 mph - N/A   Mostly Cloudy
2:33 PM 37.4 °F 29.8 °F 35.6 °F 93% 29.83 in 1.7 mi WSW 11.5 mph - N/A   Mostly Cloudy
2:41 PM 37.4 °F 30.3 °F 35.6 °F 93% 29.83 in 0.8 mi WSW 10.4 mph - N/A   Mostly Cloudy
2:52 PM 37.4 °F 30.3 °F 35.6 °F 93% 29.83 in 6.2 mi West 10.4 mph - N/A   Mostly Cloudy
3:00 PM 37 °F - 37 °F 99% 29.89 in 8 mi WSW 8.9 mph - -   Clear
3:25 PM 37.4 °F 29.8 °F 37.4 °F 100% 29.83 in 6.2 mi WSW 11.5 mph - N/A   Mostly Cloudy
3:36 PM 37.4 °F 30.3 °F 37.4 °F 100% 29.83 in 6.2 mi WSW 10.4 mph - N/A   Mostly Cloudy
3:43 PM 37.4 °F 30.3 °F 37.4 °F 100% 29.83 in - WSW 10.4 mph - N/A   Mostly Cloudy
3:54 PM 37.4 °F 30.3 °F 35.6 °F 93% 29.83 in 6.2 mi WSW 10.4 mph - N/A   Mostly Cloudy
4:00 PM 38 °F - 37 °F 93% 29.89 in 16 mi WSW 11.2 mph - -   Clear
4:13 PM 39.2 °F 32.5 °F 37.4 °F 93% 29.83 in 6.2 mi WSW 10.4 mph - N/A   Mostly Cloudy
4:16 PM 39.2 °F 32.5 °F 37.4 °F 93% 29.83 in 6.2 mi WSW 10.4 mph - N/A   Mostly Cloudy
4:25 PM 37.4 °F 30.3 °F 35.6 °F 93% 29.83 in 6.2 mi WSW 10.4 mph - N/A   Mostly Cloudy
4:47 PM 37.4 °F 30.3 °F 35.6 °F 93% 29.83 in 6.2 mi WSW 10.4 mph - N/A   Scattered Clouds
5:00 PM 37 °F - 36 °F 94% 29.89 in 13 mi WSW 8.9 mph - -   Scattered Clouds
5:07 PM 37.4 °F 30.3 °F 35.6 °F 93% 29.83 in 5.6 mi WSW 10.4 mph - N/A   Mostly Cloudy
5:25 PM 37.4 °F 31.4 °F 35.6 °F 93% 29.83 in 6.2 mi WSW 8.1 mph - N/A   Mostly Cloudy
6:00 PM 37 °F - 36 °F 97% 29.89 in 5 mi WSW 6.7 mph - - Rain Drizzle
6:11 PM 37.4 °F 32.8 °F 35.6 °F 93% 29.83 in 4.3 mi SW 5.8 mph - N/A   Mostly Cloudy
6:13 PM 37.4 °F 32.8 °F 35.6 °F 93% 29.83 in - WSW 5.8 mph - N/A   Mostly Cloudy
6:16 PM 37.4 °F 32.8 °F 35.6 °F 93% 29.83 in - WSW 5.8 mph - N/A   Mostly Cloudy
6:25 PM 37.4 °F 30.3 °F 35.6 °F 93% 29.83 in 5.6 mi WSW 10.4 mph - N/A   Mostly Cloudy
7:00 PM 36 °F - 35 °F 94% 29.91 in 25 mi SSW 4.5 mph - -   Clear
7:25 PM 35.6 °F 31.7 °F 33.8 °F 93% 29.83 in 6.2 mi SSW 4.6 mph - N/A   Partly Cloudy
8:00 PM 35 °F - 34 °F 94% 29.92 in 15 mi SSW 4.5 mph - -  
8:25 PM 33.8 °F 28.6 °F 33.8 °F 100% 29.86 in 6.2 mi SW 5.8 mph - N/A   Unknown
9:00 PM 33 °F - 33 °F 98% 29.93 in 8 mi SW 4.5 mph - -  
9:25 PM 33.8 °F 28.6 °F 32.0 °F 93% 29.86 in 6.2 mi SW 5.8 mph - N/A   Unknown
10:00 PM 33 °F - 33 °F 97% 29.94 in 9 mi SW 4.5 mph - -  
10:08 PM 33.8 °F 29.6 °F 33.8 °F 100% 29.86 in 6.2 mi SW 4.6 mph - N/A   Scattered Clouds
10:25 PM 33.8 °F 29.6 °F 32.0 °F 93% 29.86 in 6.2 mi SSW 4.6 mph - N/A   Partly Cloudy
11:00 PM 34 °F - 33 °F 95% 29.94 in 7 mi SW 4.5 mph - -  
11:25 PM 33.8 °F 27.7 °F 33.8 °F 100% 29.86 in 6.2 mi SW 6.9 mph - N/A   Partly Cloudy